Чуя

Россия / Иркутская область     59°05′42″N   112°17′53″E
темп.,
°C
ветер,
м/с
пор.,
м/с
влажн.,
%
обл.,
%
осадки,
мм/ч
давл.,
гПа
погр.,
м
12 мая, ср
ср1223:00+1с3697100 0.2 1017320
02:000ссз1498100 0.3 1016326
05:000с3696100 0.1 1014367
08:00+1с3587100 0.2 1014634
11:00+3ссв3581100 0.3 1014747
14:00+5ссв3577100 1.4 1013907
17:00+6св3669100 0.4 10131058
20:00+3ссв51077100 0.4 1015553
13 мая, чт
чт1323:00+1ссв388891 0.0 1016254
02:00−1ссв25945 0.0 1016134
05:00−1ссв26945 0.0 1016184
08:00+5ссв47615 0.0 1016645
11:00+9ссв564379 0.0 10151781
14:00+11ссв4536100 0.0 10142268
17:00+12ссв343282 0.0 10142347
20:00+8с225099 0.0 101514
14 мая, пт
пт1423:00+4с116296 0.0 101610
02:00+2ссв00705 0.0 101610
05:00+1ююз11745 0.0 101710
08:00+8юз11500 0.0 1017363
11:00+13сз11315 0.0 10151945
14:00+15з11265 0.0 10132384
17:00+15зюз12255 0.0 10122525
20:00+11ююв22395 0.0 101217
15 мая, сб
сб1523:00+6ю236049 0.0 101367
02:00+5ююв22647 0.0 101225
05:00+4ююв226532 0.0 101238
08:00+11ю354152 0.0 1011496
11:00+15ююз452850 0.0 10091998
14:00+17ююз58235 0.0 10062938
17:00+18юз5923100 0.0 10043244
20:00+12з51056100 0.0 1006940
16 мая, вс
вс1623:00+8зюз41057100 0.0 1008885
02:00+7ююз51457100 0.0 10061835
05:00+6юз61353100 0.0 10051666
08:00+3юз71394100 0.8 1005987
11:00+6зюз71069100 0.7 10051475
14:00+8зсз6847100 1.6 10061968
17:00+9сз693895 0.6 10072302
20:00+7зсз234166 0.6 100852